Regional Weather Roundup
Issued by NWS

Home | Current Version | Previous Version | Graphics & Text | Print | Product List | Glossary Off
Versions: 1 2 3 4 5 6 7 8 9 10 11 12 13 14 15 16 17 18 19 20 21 22 23 24 25 26 27 28 29 30 31 32 33 34 35 36 37 38 39 40 41 42 43 44 45 46 47 48 49 50

000
ASUS43 KDMX 211601
RWRIA

WEATHER ROUNDUP FOR IOWA
NATIONAL WEATHER SERVICE DES MOINES IA
1100 AM CDT FRI JUL 21 2017

NOTE: "FAIR" INDICATES FEW OR NO CLOUDS BELOW 12,000 FEET WITH NO
SIGNIFICANT WEATHER AND/OR OBSTRUCTIONS TO VISIBILITY.

* - THESE STATIONS ARE NOT NWS STATIONS...THUS NOT UNDER NWS
QUALITY CONTROL.  THEY ALSO DO NOT REPORT WEATHER SUCH
AS PRECIPITATION OR FOG.

IAZ001>003-012>014-020>022-031>034-043>046-211700-
   NORTHWEST IOWA

CITY           SKY/WX    TMP DP  RH WIND       PRES   REMARKS
CARROLL *      CLOUDY    86  77  74 E7        29.87R HX  97
CHEROKEE *     CLOUDY    75  73  93 NE8       29.89R
DENISON *      MOSUNNY   86  75  70 S5        29.86S HX  95
ORANGE CITY *  LGT RAIN  72  70  94 SE13G22   29.79F
SHELDON *      CLOUDY    72  70  94 SE14G23   29.78F
SIOUX CITY     CLOUDY    82  75  79 NE15      29.82R HX  89
SPENCER        LGT RAIN  73  71  93 NE5       29.93R
STORM LAKE *   PTSUNNY   77  73  88 NE10G16   29.89R
$$

IAZ055>058-069>071-079>083-090>094-211700-
   SOUTHWEST IOWA

CITY           SKY/WX    TMP DP  RH WIND       PRES   REMARKS
ATLANTIC *     SUNNY     90  73  58 S9G17     29.84F HX  98
AUDUBON *      MOSUNNY   86  77  74 S7        29.86S HX  97
CLARINDA *     SUNNY     88  77  70 S10G16    29.88F HX 100
COUNCIL BLFS * SUNNY     90  73  58 SW14G21   29.82S HX  98
CRESTON *      SUNNY     90  73  58 S13       29.90F HX  98
HARLAN  *      MOSUNNY   88  75  66 S12       29.87R HX  97
LAMONI         SUNNY     88  75  65 S13       29.91F HX  97
RED OAK *      SUNNY     88  75  66 S12G18    29.84F HX  97
SHENANDOAH *   SUNNY     88  75  66 S13       29.85S HX  97
$$

IAZ047>049-059>061-072>074-084-211700-
   CENTRAL IOWA

CITY           SKY/WX    TMP DP  RH WIND       PRES   REMARKS
AMES           CLOUDY    80  77  90 NE13      29.90F HX  87
ANKENY *       PTSUNNY   88  77  70 S8        29.88F HX 100
BOONE *        CLOUDY    79  75  89 NE17      29.90S HX  82
CHARITON *     SUNNY     91  73  55 SW9G15    29.91F HX 100
DES MOINES     MOSUNNY   88  76  67 SE9       29.87F HX  99
GRINNELL*      CLOUDY    82  75  78 SE10      29.93F HX  89
KNOXVILLE *    SUNNY     88  75  66 SW7G14    29.89F HX  97
MARSHALLTOWN   CLOUDY    78  75  90 E12       29.93F HX  81
NEWTON *       CLOUDY    84  77  79 SE10G17   29.91F HX  94
PELLA *        MOSUNNY   89  76  65 SE7       29.91F HX 100
$$

IAZ004>006-015-016-023>025-035-036-211700-
   NORTH CENTRAL IOWA

CITY           SKY/WX    TMP DP  RH WIND       PRES   REMARKS
ALGONA *       PTSUNNY   79  75  89 E9        29.91S HX  82
CLARION *      CLOUDY    73  73 100 E15G22    29.91F
ESTHERVILLE    LGT RAIN  71  71 100 E7        29.89F FOG
FORT DODGE *   CLOUDY    75  72  88 E17       29.89F
MASON CITY     LGT RAIN  72  71  97 E18G24    29.97F
FOREST CITY *  CLOUDY    72  72 100 E13G18    29.93F
WEBSTER CITY * LGT RAIN  75  73  94 E9G20     29.90F
IOWA FALLS *   LGT RAIN  74  70  88 NE12      29.97F
$$

IAZ007>011-017>019-026>030-037>042-050>054-066-211700-
   NORTHEAST IOWA

CITY           SKY/WX    TMP DP  RH WIND       PRES   REMARKS
CEDAR RAPIDS   CLOUDY    80  75  84 S5        29.95R HX  85
CHARLES CITY * LGT RAIN  70  70 100 CALM      30.04F
CLINTON *      PTSUNNY   78  73  84 S8        29.98R HX  81
DECORAH *      LGT RAIN  70  68  94 VRB6      30.02R
DUBUQUE        CLOUDY    73  70  90 NE10      30.00R
MONTICELLO *   MOSUNNY   77  72  83 VRB5      29.97R
OELWEIN *      LGT RAIN  70  70 100 N13       30.01R
WATERLOO       LGT RAIN  71  68  90 N15G23    29.98R FOG
$$

IAZ064-065-067-068-078-211700-
   EAST CENTRAL IOWA

CITY           SKY/WX    TMP DP  RH WIND       PRES   REMARKS
DAVENPORT      CLOUDY    81  72  74 SE9       29.98F HX  85
IOWA CITY      MOSUNNY   84  75  74 SE10      29.95F HX  92
MUSCATINE *    CLOUDY    82  73  74 SE10G16   29.95F HX  88
QUAD CITIES    CLOUDY    82  72  71 SE10      29.96F HX  87
$$

IAZ062-063-075>077-085>089-095>099-211700-
   SOUTHEAST IOWA

CITY           SKY/WX    TMP DP  RH WIND       PRES   REMARKS
BURLINGTON     SUNNY     88  78  72 S12       29.96F HX 101
FAIRFIELD *    CLOUDY    90  75  62 SE10      29.94S HX 100
FORT MADISON * SUNNY     88  81  79 S9        29.97S HX 105
KEOKUK *       SUNNY     90  77  66 S5        29.95F HX 102
OSKALOOSA *      N/A     87  74  65 S3        29.92F HX  96
OTTUMWA        SUNNY     89  75  63 S10       29.92F HX  99
WASHINGTON *   CLOUDY    84  79  84 SE10      29.95F HX  96
$$

ABBREVIATIONS USED IN REMARKS
   TC - TEMPERATURES IN CELSIUS
  WCI - WIND CHILL INDEX
   HX - HEAT INDEX
  VSB - VISIBILITY
$$





USA.gov is the U.S. government's official web portal to all federal, state and local government web resources and services.